User: anonymous   Login
Location: Brunembert
(50.7122°N, 1.8935°E)
Time: 04:10:40
(UTC+00:00)
Language:

Cosmos 921 Rocket - Orbit

View from above orbital plane
View from above orbital plane
View from above satellite
View from above satellite

Ground track
Ground track

The orbit data is extracted from the following two-line orbital elements,

1 10096U 77055B   21164.80689655  .00000067  00000-0  92251-5 0  9998
2 10096  75.8347 290.2076 0041986  92.9946 267.6051 14.88760769379131
Epoch (UTC): 13 June 2021 19:21:55
Eccentricity: 0.0041986
inclination: 75.8347°
perigee height: 572 km
apogee height: 631 km
right ascension of ascending node: 290.2076°
argument of perigee: 92.9946°
revolutions per day: 14.88760769
mean anomaly at epoch: 267.6051°
orbit number at epoch: 37913

The dashed part of the orbit path shows where the satellite is in the earth's shadow,  

DLR